Regional Weather Roundup
Issued by NWS

Home | Current Version | Previous Version | Graphics & Text | Print | Product List | Glossary On
Versions: 1 2 3 4 5 6 7 8 9 10 11 12 13 14 15 16 17 18 19 20 21 22 23 24 25 26 27 28 29 30 31 32 33 34 35 36 37 38 39 40 41 42 43 44 45 46 47 48 49 50
000
ASUS43 KOAX 240710
RWRNE

WEATHER ROUNDUP FOR NEBRASKA
NATIONAL WEATHER SERVICE OMAHA NE
200 AM CDT THU JUL 24 2014

NOTES: SATELLITE DATA IS BEING USED TO AUGMENT CLOUD COVER ABOVE
       12000 FEET.
       "FAIR" INDICATES FEW OR NO CLOUDS BELOW 12,000 FEET WITH NO
       SIGNIFICANT WEATHER AND/OR OBSTRUCTIONS TO VISIBILITY.

  * THESE STATIONS DO NOT REPORT WEATHER SUCH AS RAIN...SNOW OR FOG.

NEZ001>004-019>022-054>056-240800-
NEBRASKA PANHANDLE

CITY           SKY/WX    TMP DP  RH WIND       PRES   REMARKS
SCOTTSBLUFF      N/A     70  64  81 MISG      30.08S
ALLIANCE       CLEAR     68  64  87 S23G31    30.09F
CHADRON        PTCLDY    74  65  73 S22G32    29.99F
KIMBALL        MOCLDY    71  56  58 S15       30.14F
SIDNEY         MOCLDY    72  61  68 S13       30.15F
$$

NEZ057>060-069>072-079>082-240800-
SOUTHWEST NEBRASKA

CITY           SKY/WX    TMP DP  RH WIND       PRES   REMARKS
NORTH PLATTE   CLEAR     64  61  90 E9        30.14F
IMPERIAL       CLEAR     67  62  84 SE10      30.16S
LEXINGTON      CLEAR     66  61  83 SE7       30.15S
MCCOOK         CLEAR     67  63  87 E6        30.15F
OGALLALA       CLEAR     68  61  78 S5        30.14F
$$

NEZ005>010-023>029-035>040-094-240800-
NORTH CENTRAL NEBRASKA

CITY           SKY/WX    TMP DP  RH WIND       PRES   REMARKS
VALENTINE      CLEAR     69  60  73 S12       30.10S
AINSWORTH      CLEAR     67  58  72 SE15      30.11F
BROKEN BOW     CLEAR     64  60  87 SE6       30.14F
O`NEILL        CLEAR     66  57  74 SE6       30.15F
ORD            CLEAR     66  59  78 SE6       30.13F
THEDFORD       CLEAR     67  60  78 S10       30.14S
$$

NEZ041-046>049-061>064-073>077-083>087-240800-
SOUTH CENTRAL NEBRASKA

CITY           SKY/WX    TMP DP  RH WIND       PRES   REMARKS
GRAND ISLAND   CLEAR     67  60  78 SE7       30.15F
AURORA         CLEAR     65  62  92 SE5       30.15F
HASTINGS       CLEAR     69  58  67 SE10      30.15F
HEBRON         PTCLDY    64  58  82 CALM      30.15S
HOLDREGE       CLEAR     66  60  81 SE9       30.15S
KEARNEY *      CLEAR     64  59  82 SE7       30.15F
YORK           PTCLDY    66  63  88 SE6       30.15F
$$

NEZ011>018-030>034-042>045-240800-
NORTHEAST NEBRASKA

CITY           SKY/WX    TMP DP  RH WIND       PRES   REMARKS
NORFOLK        CLEAR     64  59  83 E6        30.15F
ALBION         CLEAR     62  57  86 CALM      30.15F
BLAIR          CLEAR     66  61  83 E6        30.16F
COLUMBUS *     CLEAR     63  57  82 E5        30.15F
FREMONT        CLEAR     69  62  79 E5        30.16S
TEKAMAH        CLEAR     64  59  83 CALM      30.15F
WAYNE          CLEAR     62  59  90 CALM      30.16F
$$

NEZ050>053-065>068-078-088>093-240800-
SOUTHEAST NEBRASKA

CITY           SKY/WX    TMP DP  RH WIND       PRES   REMARKS
LINCOLN        CLEAR     72  61  68 CALM      30.15F
OMAHA EPPLEY   CLEAR     70  60  70 SE5       30.16S
BEATRICE       CLEAR     66  62  85 SE3       30.14F
FALLS CITY     CLEAR     66  63  90 E3        30.14F
NEBRASKA CITY  CLEAR     67  62  85 SE5       30.15F
PLATTSMOUTH    CLEAR     68  61  78 SE5       30.16F
$$

NEZ044-045-051>053-067-240800-
OMAHA AREA

CITY           SKY/WX    TMP DP  RH WIND       PRES   REMARKS
OMAHA EPPLEY   CLEAR     70  60  70 SE5       30.16S
BLAIR          CLEAR     66  61  83 E6        30.16F
FREMONT        CLEAR     69  62  79 E5        30.16S
MILLARD        CLEAR     71  62  73 SE5       30.15F
OFFUTT AFB     CLEAR     65  64  96 CALM      30.16S
PLATTSMOUTH    CLEAR     68  61  78 SE5       30.16F
WAHOO          FAIR      65  61  85 E5        30.15S
$$



USA.gov is the U.S. government's official web portal to all federal, state and local government web resources and services.